Погода в Верхораменье

Россия / Кировская область     59°19′31″N   48°29′52″E
темп.,
°C
ветер,
м/с
пор.,
м/с
влажн.,
%
обл.,
%
осадки,
мм/ч
давл.,
гПа
погр.,
м
2 июля, сб
сб200:00+10ссз228320 0.0 102022
03:00+8сз23865 0.0 101958
06:00+12зсз266794 0.0 1018190
09:00+16сз2561100 0.0 1017393
12:00+21ссз365592 0.2 10151716
15:00+17ссв3888100 1.4 1015265
18:00+16с2592100 0.5 1015182
21:00+13св3796100 0.6 1016186
3 июля, вс
вс300:00+13ссв2897100 0.0 1016259
03:00+12ссв279738 0.0 1016233
06:00+13ссв37889 0.0 1016440
09:00+17св4660100 0.0 10161040
12:00+21ссв4647100 0.0 10161572
15:00+22с4643100 0.0 10152127
18:00+21ссв255783 0.0 1014513
21:00+14св22765 0.0 101539
4 июля, пн
пн400:00+11ссв2374100 0.0 101653
03:00+11ссв23735 0.0 101656
06:00+15ссв24645 0.0 1016184
09:00+20ссв354451 0.0 10171399
12:00+23ссв343347 0.0 10161889
15:00+24ссв2332100 0.0 10162070
18:00+22с1157100 0.0 101534
21:00+15ссв117146 0.0 101611
5 июля, вт
вт500:00+13сз11769 0.0 101710
03:00+12зсз11775 0.0 101711
06:00+17сз12630 0.0 1017119
09:00+24зсз12430 0.0 1017649
12:00+27з12320 0.0 10161897
15:00+27з12304 0.0 10152130
18:00+25ююз22545 0.0 101458
21:00+18ююз22725 0.0 101427
6 июля, ср
ср600:00+16юз22754 0.0 101441
03:00+15зюз22801 0.0 101419
06:00+20юз23671 0.0 1014138
09:00+26зюз23502 0.0 1013693
12:00+29зюз333716 0.0 10132678
15:00+29зюз343411 0.0 10122557
18:00+25юз485888 0.0 1012503
21:00+19юз228774 0.0 101238